| time (UTC) | temp F | wind direction | speed knots | gust knots | rain 1hr in | rain 24hr in | rain mn in | humidity % | barometer mb |
| 20260505052004 | 64 | 318 | 2.6 | 2.6 | 0.00 | 0.00 | 0.00 | 55 | 1003.0 |
| 20260505051004 | 64 | 283 | 0.0 | 4.3 | 0.00 | 0.00 | 0.00 | 54 | 1003.0 |
| 20260505041005 | 64 | 269 | 1.7 | 4.3 | 0.00 | 0.00 | 0.00 | 53 | 1002.7 |
| 20260505040005 | 64 | 317 | 1.7 | 4.3 | 0.00 | 0.00 | 0.00 | 55 | 1002.7 |
| 20260505035005 | 63 | 331 | 0.0 | 2.6 | 0.00 | 0.00 | 0.00 | 56 | 1002.7 |
| 20260505034004 | 63 | 244 | 0.0 | 2.6 | 0.00 | 0.00 | 0.00 | 57 | 1002.7 |
| 20260505033006 | 62 | 203 | 0.9 | 0.9 | 0.00 | 0.00 | 0.00 | 58 | 1002.7 |
| 20260505032005 | 63 | 247 | 0.9 | 1.7 | 0.00 | 0.00 | 0.00 | 58 | 1002.7 |
| 20260505031005 | 62 | 313 | 0.9 | 1.7 | 0.00 | 0.00 | 0.00 | 60 | 1002.7 |
| 20260505025004 | 62 | 244 | 1.7 | 1.7 | 0.00 | 0.00 | 0.00 | 62 | 1002.7 |
| 20260505024004 | 63 | 39 | 0.0 | 0.0 | 0.00 | 0.00 | 0.00 | 60 | 1002.7 |
| 20260505023004 | 64 | 291 | 0.0 | 2.6 | 0.00 | 0.00 | 0.00 | 58 | 1002.7 |
| 20260505022005 | 65 | 258 | 0.0 | 2.6 | 0.00 | 0.00 | 0.00 | 56 | 1002.7 |
| 20260505021005 | 65 | 226 | 1.7 | 2.6 | 0.00 | 0.00 | 0.00 | 57 | 1002.7 |
| 20260505020006 | 64 | 212 | 0.9 | 1.7 | 0.00 | 0.00 | 0.00 | 58 | 1002.7 |
| 20260505015008 | 64 | 177 | 0.0 | 0.0 | 0.00 | 0.00 | 0.00 | 61 | 1002.4 |
| 20260505012007 | 66 | 17 | 0.0 | 0.0 | 0.00 | 0.00 | 0.00 | 57 | 1002.0 |
| 20260505011008 | 67 | 358 | 0.0 | 0.0 | 0.00 | 0.00 | 0.00 | 55 | 1002.0 |
| 20260505010007 | 68 | 32 | 0.0 | 0.0 | 0.00 | 0.00 | 0.00 | 53 | 1002.0 |
| 20260505005005 | 69 | 358 | 0.0 | 0.0 | 0.00 | 0.00 | 0.00 | 50 | 1002.0 |
| 20260505004005 | 70 | 322 | 0.0 | 0.0 | 0.00 | 0.00 | 0.00 | 48 | 1001.7 |
| 20260505002004 | 72 | 189 | 0.0 | 0.9 | 0.00 | 0.00 | 0.00 | 46 | 1001.7 |
| 20260504235005 | 75 | 328 | 0.9 | 2.6 | 0.00 | 0.00 | 0.00 | 44 | 1001.4 |
| 20260504234011 | 75 | 306 | 0.9 | 2.6 | 0.00 | 0.00 | 0.00 | 43 | 1001.4 |
| 20260504232005 | 76 | 339 | 2.6 | 6.1 | 0.00 | 0.00 | 0.00 | 42 | 1001.4 |
| 20260504231015 | 77 | 326 | 2.6 | 6.1 | 0.00 | 0.00 | 0.00 | 40 | 1001.4 |
| 20260504224005 | 78 | 26 | 4.3 | 6.1 | 0.00 | 0.00 | 0.00 | 39 | 1001.4 |
| 20260504223004 | 77 | 317 | 1.7 | 6.1 | 0.00 | 0.00 | 0.00 | 40 | 1001.4 |
| 20260504222004 | 78 | 351 | 6.1 | 7.0 | 0.00 | 0.00 | 0.00 | 39 | 1001.7 |
| 20260504221008 | 78 | 6 | 2.6 | 5.2 | 0.00 | 0.00 | 0.00 | 38 | 1001.4 |
| 20260504220004 | 79 | 6 | 2.6 | 7.8 | 0.00 | 0.00 | 0.00 | 38 | 1001.7 |
| 20260504215004 | 80 | 331 | 4.3 | 10.4 | 0.00 | 0.00 | 0.00 | 36 | 1001.7 |
| 20260504214011 | 80 | 301 | 5.2 | 10.4 | 0.00 | 0.00 | 0.00 | 37 | 1001.7 |
| 20260504213005 | 80 | 303 | 5.2 | 10.4 | 0.00 | 0.00 | 0.00 | 36 | 1001.7 |
| 20260504212004 | 80 | 276 | 1.7 | 6.1 | 0.00 | 0.00 | 0.00 | 38 | 1001.4 |
| 20260504211004 | 80 | 321 | 0.9 | 7.0 | 0.00 | 0.00 | 0.00 | 37 | 1001.4 |
| 20260504210005 | 80 | 3 | 4.3 | 7.0 | 0.00 | 0.00 | 0.00 | 35 | 1001.4 |
| 20260504205009 | 80 | 332 | 4.3 | 7.0 | 0.00 | 0.00 | 0.00 | 35 | 1001.6 |
| 20260504204006 | 79 | 44 | 5.2 | 7.0 | 0.00 | 0.00 | 0.00 | 35 | 1001.4 |
| 20260504203004 | 79 | 279 | 2.6 | 6.1 | 0.00 | 0.00 | 0.00 | 36 | 1001.7 |
| 20260504202007 | 80 | 336 | 2.6 | 5.2 | 0.00 | 0.00 | 0.00 | 36 | 1001.7 |
| 20260504201007 | 80 | 346 | 2.6 | 7.8 | 0.00 | 0.00 | 0.00 | 34 | 1002.0 |
| 20260504200005 | 79 | 3 | 2.6 | 10.4 | 0.00 | 0.00 | 0.00 | 35 | 1002.0 |
| 20260504195004 | 80 | 30 | 4.3 | 10.4 | 0.00 | 0.00 | 0.00 | 35 | 1002.4 |
| 20260504192008 | 80 | 344 | 2.6 | 10.4 | 0.00 | 0.00 | 0.00 | 33 | 1002.7 |
| 20260504191005 | 80 | 318 | 0.9 | 10.4 | 0.00 | 0.00 | 0.00 | 34 | 1003.0 |
| 20260504190007 | 78 | 314 | 2.6 | 11.3 | 0.00 | 0.00 | 0.00 | 34 | 1003.0 |
| 20260504185005 | 79 | 272 | 4.3 | 11.3 | 0.00 | 0.00 | 0.00 | 32 | 1003.0 |
| 20260504184007 | 79 | 341 | 3.5 | 10.4 | 0.00 | 0.00 | 0.00 | 33 | 1003.0 |
| 20260504183010 | 80 | 358 | 3.5 | 8.7 | 0.00 | 0.00 | 0.00 | 32 | 1003.0 |
| 20260504182023 | 79 | 356 | 8.7 | 8.7 | 0.00 | 0.00 | 0.00 | 32 | 1003.0 |
| 20260504181005 | 78 | 226 | 2.6 | 10.4 | 0.00 | 0.00 | 0.00 | 32 | 1003.4 |
| 20260504180005 | 78 | 10 | 3.5 | 10.4 | 0.00 | 0.00 | 0.00 | 31 | 1003.4 |
| 20260504175007 | 78 | 334 | 5.2 | 7.8 | 0.00 | 0.00 | 0.00 | 32 | 1003.4 |
| 20260504174007 | 77 | 340 | 7.0 | 10.4 | 0.00 | 0.00 | 0.00 | 33 | 1003.4 |
| 20260504173005 | 76 | 241 | 2.6 | 10.4 | 0.00 | 0.00 | 0.00 | 35 | 1003.7 |
| 20260504172005 | 77 | 280 | 2.6 | 11.3 | 0.00 | 0.00 | 0.00 | 32 | 1004.1 |
| 20260504171005 | 76 | 299 | 7.0 | 11.3 | 0.00 | 0.00 | 0.00 | 33 | 1004.1 |
| 20260504141004 | 67 | 190 | 0.9 | 2.6 | 0.00 | 0.00 | 0.00 | 53 | 1005.8 |
| 20260504082005 | 39 | 338 | 0.0 | 0.0 | 0.00 | 0.00 | 0.00 | 94 | 1006.1 |
| 20260504081005 | 39 | 307 | 0.0 | 0.0 | 0.00 | 0.00 | 0.00 | 93 | 1006.1 |